• In Germany
  • List of Countries
  • For 7 days
  • Water Temperature
  • Satellite Maps
  • Weather Map
  • Weather Widgets
  • user-avatar
    Login

    Hourly Weather Głogów

    Today, 22 June, Friday

    Time Temperature Precipitation Wind Pressure Humidity
    00:00 +12°C° 0 mm 4 mps 754 mmHg 63%
    01:00 +11°C° 0 mm 4 mps 754 mmHg 65%
    02:00 +11°C° 0 mm 4 mps 754 mmHg 68%
    03:00 +10°C° 0 mm 4 mps 755 mmHg 71%
    04:00 +10°C° 0 mm 4 mps 755 mmHg 74%
    05:00 +9°C° 0 mm 5 mps 755 mmHg 71%
    06:00 +10°C° 0 mm 5 mps 755 mmHg 67%
    07:00 +11°C° 0 mm 6 mps 755 mmHg 64%
    08:00 +13°C° 0 mm 6 mps 755 mmHg 63%
    09:00 +13°C° 0 mm 6 mps 755 mmHg 62%
    10:00 +13°C° 0 mm 6 mps 755 mmHg 61%
    11:00 +14°C° 0.2 mm 6 mps 755 mmHg 60%
    12:00 +15°C° 0.2 mm 6 mps 755 mmHg 59%
    13:00 +15°C° 0.2 mm 5 mps 755 mmHg 58%
    14:00 +16°C° 0.4 mm 5 mps 755 mmHg 59%
    15:00 +16°C° 0.4 mm 5 mps 754 mmHg 61%
    16:00 +16°C° 0.4 mm 5 mps 754 mmHg 62%
    17:00 +16°C° 0.1 mm 5 mps 755 mmHg 63%
    18:00 +15°C° 0.1 mm 4 mps 755 mmHg 64%
    19:00 +16°C° 0.1 mm 3 mps 755 mmHg 64%
    20:00 +14°C° 0 mm 3 mps 755 mmHg 70%
    21:00 +12°C° 0 mm 3 mps 755 mmHg 75%
    22:00 +11°C° 0 mm 3 mps 756 mmHg 80%
    23:00 +11°C° 0 mm 3 mps 756 mmHg 81%

    Tomorrow, 23 June, Saturday

    Time Temperature Precipitation Wind Pressure Humidity
    00:00 +11°C° 0 mm 4 mps 756 mmHg 83%
    01:00 +11°C° 0 mm 4 mps 756 mmHg 84%
    02:00 +10°C° 0 mm 4 mps 756 mmHg 85%
    03:00 +10°C° 0 mm 4 mps 756 mmHg 86%
    04:00 +9°C° 0 mm 5 mps 756 mmHg 86%
    05:00 +9°C° 0.1 mm 5 mps 756 mmHg 82%
    06:00 +10°C° 0.1 mm 6 mps 756 mmHg 79%
    07:00 +10°C° 0.1 mm 6 mps 756 mmHg 75%
    08:00 +11°C° 0.1 mm 6 mps 756 mmHg 73%
    09:00 +11°C° 0.1 mm 6 mps 756 mmHg 72%
    10:00 +11°C° 0.1 mm 6 mps 756 mmHg 71%
    11:00 +11°C° 0.1 mm 6 mps 756 mmHg 72%
    12:00 +13°C° 0.1 mm 6 mps 756 mmHg 73%
    13:00 +13°C° 0.1 mm 6 mps 756 mmHg 74%
    14:00 +14°C° 0.2 mm 6 mps 756 mmHg 73%
    15:00 +15°C° 0.2 mm 6 mps 756 mmHg 71%
    16:00 +15°C° 0.2 mm 7 mps 755 mmHg 69%
    17:00 +15°C° 0.1 mm 6 mps 755 mmHg 70%
    18:00 +15°C° 0.1 mm 6 mps 755 mmHg 71%
    19:00 +14°C° 0.1 mm 5 mps 755 mmHg 72%
    20:00 +13°C° 0 mm 5 mps 756 mmHg 77%
    21:00 +12°C° 0 mm 4 mps 756 mmHg 81%
    22:00 +11°C° 0 mm 4 mps 756 mmHg 86%
    23:00 +11°C° 0 mm 4 mps 756 mmHg 88%

    Day after tomorrow, 24 June, Sunday

    Time Temperature Precipitation Wind Pressure Humidity
    00:00 +11°C° 0 mm 4 mps 756 mmHg 91%
    01:00 +10°C° 0 mm 4 mps 756 mmHg 93%
    02:00 +10°C° 0.1 mm 4 mps 756 mmHg 94%
    03:00 +11°C° 0.1 mm 4 mps 756 mmHg 94%
    04:00 +11°C° 0.1 mm 4 mps 756 mmHg 94%
    05:00 +11°C° 0 mm 4 mps 756 mmHg 92%
    06:00 +12°C° 0 mm 4 mps 756 mmHg 89%
    07:00 +12°C° 0 mm 4 mps 756 mmHg 87%
    08:00 +14°C° 0.1 mm 4 mps 756 mmHg 82%
    09:00 +15°C° 0.1 mm 4 mps 756 mmHg 76%
    10:00 +17°C° 0.1 mm 4 mps 757 mmHg 71%
    11:00 +17°C° 0.2 mm 5 mps 756 mmHg 69%
    12:00 +17°C° 0.2 mm 5 mps 756 mmHg 67%
    13:00 +19°C° 0.2 mm 5 mps 756 mmHg 65%
    14:00 +19°C° 0.1 mm 5 mps 756 mmHg 63%
    15:00 +19°C° 0.1 mm 5 mps 756 mmHg 61%
    16:00 +20°C° 0.1 mm 5 mps 756 mmHg 58%
    17:00 +19°C° 0.2 mm 4 mps 756 mmHg 63%
    18:00 +18°C° 0.2 mm 4 mps 756 mmHg 68%
    19:00 +17°C° 0.2 mm 3 mps 756 mmHg 73%
    20:00 +16°C° 0.2 mm 3 mps 756 mmHg 79%
    21:00 +15°C° 0.2 mm 2 mps 756 mmHg 85%
    22:00 +13°C° 0.2 mm 2 mps 757 mmHg 91%
    23:00 +13°C° 0.2 mm 2 mps 757 mmHg 92%

    25 June, Monday

    Time Temperature Precipitation Wind Pressure Humidity
    00:00 +13°C° 0.2 mm 2 mps 757 mmHg 94%
    01:00 +12°C° 0.2 mm 2 mps 757 mmHg 95%
    02:00 +12°C° 0 mm 2 mps 757 mmHg 95%
    03:00 +10°C° 0 mm 2 mps 757 mmHg 96%
    04:00 +10°C° 0 mm 2 mps 757 mmHg 96%
    05:00 +12°C° 0 mm 2 mps 757 mmHg 91%
    06:00 +14°C° 0 mm 2 mps 758 mmHg 87%
    07:00 +16°C° 0 mm 2 mps 758 mmHg 82%
    08:00 +17°C° 0.1 mm 2 mps 758 mmHg 73%
    09:00 +19°C° 0.1 mm 2 mps 758 mmHg 64%
    10:00 +21°C° 0.1 mm 2 mps 758 mmHg 55%
    11:00 +23°C° 0.1 mm 2 mps 758 mmHg 50%
    12:00 +23°C° 0.1 mm 2 mps 758 mmHg 46%
    13:00 +24°C° 0.1 mm 2 mps 758 mmHg 41%
    14:00 +24°C° 0 mm 2 mps 758 mmHg 42%
    15:00 +24°C° 0 mm 2 mps 758 mmHg 43%
    16:00 +24°C° 0 mm 2 mps 758 mmHg 44%
    17:00 +23°C° 0 mm 2 mps 758 mmHg 48%
    18:00 +21°C° 0 mm 2 mps 758 mmHg 53%
    19:00 +21°C° 0 mm 1 mps 759 mmHg 57%
    20:00 +20°C° 0 mm 1 mps 759 mmHg 60%
    21:00 +19°C° 0 mm 1 mps 759 mmHg 62%
    22:00 +16°C° 0 mm 1 mps 759 mmHg 65%
    23:00 +16°C° 0 mm 1 mps 759 mmHg 66%

    26 June, Tuesday

    Time Temperature Precipitation Wind Pressure Humidity
    00:00 +16°C° 0 mm 1 mps 760 mmHg 67%
    01:00 +15°C° 0 mm 1 mps 760 mmHg 67%
    02:00 +15°C° 0 mm 1 mps 760 mmHg 69%
    03:00 +14°C° 0 mm 1 mps 759 mmHg 70%
    04:00 +14°C° 0 mm 1 mps 759 mmHg 71%
    05:00 +16°C° 0 mm 1 mps 760 mmHg 67%
    06:00 +18°C° 0 mm 1 mps 760 mmHg 62%
    07:00 +20°C° 0 mm 1 mps 760 mmHg 58%
    08:00 +21°C° 0 mm 2 mps 760 mmHg 53%
    09:00 +23°C° 0 mm 2 mps 760 mmHg 47%
    10:00 +25°C° 0 mm 2 mps 760 mmHg 42%
    11:00 +25°C° 0 mm 2 mps 759 mmHg 43%
    12:00 +25°C° 0 mm 2 mps 759 mmHg 43%
    13:00 +25°C° 0 mm 2 mps 759 mmHg 44%
    14:00 +25°C° 0 mm 2 mps 759 mmHg 45%
    15:00 +25°C° 0 mm 2 mps 759 mmHg 45%
    16:00 +25°C° 0 mm 3 mps 758 mmHg 46%
    17:00 +24°C° 0 mm 2 mps 758 mmHg 52%
    18:00 +23°C° 0 mm 2 mps 758 mmHg 58%
    19:00 +22°C° 0 mm 1 mps 758 mmHg 63%
    20:00 +20°C° 0 mm 1 mps 758 mmHg 66%
    21:00 +19°C° 0 mm 1 mps 758 mmHg 69%
    22:00 +18°C° 0 mm 1 mps 759 mmHg 72%
    23:00 +16°C° 0 mm 1 mps 758 mmHg 75%

    27 June, Wednesday

    Time Temperature Precipitation Wind Pressure Humidity
    00:00 +16°C° 0 mm 1 mps 758 mmHg 77%
    01:00 +15°C° 0 mm 2 mps 758 mmHg 80%
    02:00 +15°C° 0 mm 2 mps 758 mmHg 83%
    03:00 +14°C° 0 mm 2 mps 758 mmHg 86%
    04:00 +14°C° 0 mm 2 mps 758 mmHg 90%
    05:00 +16°C° 0 mm 2 mps 758 mmHg 83%
    06:00 +18°C° 0 mm 2 mps 758 mmHg 76%
    07:00 +19°C° 0 mm 2 mps 758 mmHg 69%
    08:00 +21°C° 0 mm 2 mps 758 mmHg 62%
    09:00 +24°C° 0 mm 3 mps 758 mmHg 55%
    10:00 +25°C° 0 mm 3 mps 758 mmHg 49%
    11:00 +25°C° 0.1 mm 3 mps 758 mmHg 48%
    12:00 +26°C° 0.1 mm 3 mps 757 mmHg 48%
    13:00 +26°C° 0.1 mm 3 mps 757 mmHg 47%
    14:00 +26°C° 0.1 mm 3 mps 757 mmHg 48%
    15:00 +26°C° 0.1 mm 3 mps 757 mmHg 49%
    16:00 +26°C° 0.1 mm 4 mps 756 mmHg 49%
    17:00 +25°C° 0.1 mm 3 mps 756 mmHg 53%
    18:00 +24°C° 0.1 mm 3 mps 757 mmHg 58%
    19:00 +22°C° 0.1 mm 3 mps 757 mmHg 62%
    20:00 +21°C° 0 mm 3 mps 757 mmHg 67%
    21:00 +19°C° 0 mm 2 mps 757 mmHg 73%
    22:00 +17°C° 0 mm 2 mps 758 mmHg 78%
    23:00 +16°C° 0 mm 2 mps 758 mmHg 81%
    Show more